Total_Precipitation_Accumulation
0.23 0.21 0.17 0.14 0.13 0.13 0.15 0.17 0.20 0.20 0.16 0.13 0.12 0.10 0.08 0.06 0.04 0.03 0.02 0.01 0.01 0.02 0.02 0.03 0.03 0.03 0.04 0.06 0.08 0.10 0.12 0.14 0.15 0.16 0.18 0.19 0.21 0.23
0.17 0.17 0.16 0.14 0.15 0.16 0.17 0.19 0.21 0.23 0.22 0.17 0.13 0.12 0.11 0.10 0.09 0.06 0.04 0.03 0.03 0.03 0.03 0.03 0.03 0.04 0.05 0.06 0.08 0.10 0.12 0.14 0.17 0.20 0.23 0.26 0.29 0.31
0.13 0.14 0.14 0.14 0.14 0.15 0.17 0.20 0.23 0.26 0.28 0.25 0.22 0.20 0.18 0.15 0.12 0.08 0.05 0.03 0.02 0.02 0.02 0.02 0.02 0.04 0.04 0.06 0.07 0.09 0.11 0.14 0.18 0.22 0.26 0.29 0.31 0.33
0.14 0.15 0.16 0.16 0.17 0.18 0.20 0.22 0.24 0.25 0.26 0.25 0.21 0.18 0.16 0.12 0.09 0.06 0.03 0.02 0.01 0.01 0.01 0.01 0.02 0.03 0.04 0.05 0.08 0.12 0.15 0.18 0.20 0.22 0.24 0.26 0.28 0.30
0.15 0.17 0.19 0.20 0.23 0.24 0.24 0.25 0.24 0.23 0.22 0.20 0.17 0.14 0.11 0.09 0.06 0.04 0.02 0.01 0.00 0.00 0.00 0.00 0.01 0.03 0.06 0.08 0.09 0.10 0.10 0.10 0.10 0.11 0.13 0.16 0.18 0.20
0.18 0.21 0.23 0.24 0.26 0.26 0.26 0.25 0.22 0.19 0.16 0.15 0.15 0.13 0.10 0.06 0.04 0.02 0.01 0.00 0.00 0.00 0.00 0.01 0.02 0.03 0.03 0.02 0.02 0.03 0.03 0.05 0.07 0.10 0.13 0.15 0.16 0.18
0.26 0.28 0.29 0.29 0.28 0.24 0.21 0.18 0.15 0.14 0.16 0.21 0.21 0.14 0.06 0.03 0.02 0.01 0.01 0.01 0.00 0.00 0.01 0.00 0.00 0.00 0.00 0.00 0.01 0.02 0.04 0.08 0.11 0.14 0.16 0.19 0.19 0.20
0.30 0.29 0.28 0.25 0.21 0.18 0.16 0.14 0.16 0.20 0.25 0.28 0.18 0.07 0.02 0.01 0.01 0.03 0.05 0.08 0.05 0.00 0.01 0.00 0.00 0.00 0.00 0.01 0.01 0.03 0.05 0.06 0.08 0.10 0.12 0.14 0.15 0.16
0.28 0.25 0.21 0.18 0.15 0.10 0.09 0.10 0.13 0.16 0.18 0.13 0.05 0.01 0.01 0.02 0.07 0.12 0.10 0.11 0.07 0.01 0.02 0.02 0.00 0.01 0.01 0.00 0.01 0.01 0.02 0.03 0.05 0.08 0.10 0.12 0.13 0.14
0.20 0.16 0.12 0.09 0.06 0.06 0.08 0.13 0.10 0.06 0.03 0.01 0.01 0.02 0.03 0.03 0.07 0.14 0.13 0.09 0.03 0.00 0.01 0.02 0.00 0.00 0.00 0.00 0.00 0.00 0.02 0.05 0.09 0.12 0.14 0.15 0.15 0.16
0.10 0.07 0.06 0.05 0.05 0.09 0.14 0.16 0.06 0.01 0.00 0.01 0.03 0.03 0.03 0.02 0.03 0.10 0.15 0.15 0.09 0.01 0.00 0.00 0.00 0.00 0.00 0.00 0.00 0.00 0.02 0.03 0.04 0.06 0.07 0.09 0.10 0.12
0.03 0.02 0.02 0.03 0.06 0.12 0.13 0.08 0.02 0.00 0.02 0.01 0.00 0.00 0.00 0.00 0.01 0.07 0.20 0.35 0.26 0.12 0.00 0.04 0.06 0.08 0.15 0.02 0.00 0.00 0.01 0.01 0.02 0.03 0.04 0.06 0.08 0.12
0.01 0.01 0.01 0.04 0.10 0.12 0.07 0.02 0.02 0.05 0.03 0.00 0.00 0.00 0.00 0.00 0.00 0.01 0.08 0.35 0.51 0.29 0.04 0.22 0.32 0.15 0.24 0.10 0.00 0.00 0.00 0.00 0.02 0.03 0.06 0.09 0.14 0.24
0.01 0.01 0.02 0.07 0.08 0.03 0.01 0.01 0.03 0.03 0.00 0.00 0.00 0.00 0.01 0.01 0.00 0.01 0.02 0.06 0.21 0.30 0.15 0.33 0.59 0.35 0.38 0.24 0.04 0.00 0.00 0.01 0.05 0.11 0.16 0.20 0.24 0.29
0.02 0.04 0.05 0.04 0.01 0.00 0.00 0.01 0.01 0.00 0.01 0.03 0.02 0.01 0.01 0.01 0.01 0.02 0.01 0.01 0.02 0.03 0.06 0.13 0.35 0.38 0.44 0.39 0.18 0.04 0.04 0.03 0.06 0.16 0.21 0.23 0.26 0.32
0.03 0.03 0.02 0.00 0.00 0.00 0.00 0.00 0.00 0.00 0.04 0.06 0.04 0.02 0.01 0.01 0.02 0.03 0.05 0.05 0.06 0.01 0.00 0.02 0.10 0.29 0.36 0.21 0.24 0.17 0.13 0.19 0.15 0.23 0.27 0.26 0.30 0.39
0.03 0.01 0.00 0.00 0.00 0.00 0.00 0.00 0.00 0.01 0.02 0.03 0.05 0.05 0.03 0.02 0.02 0.02 0.07 0.10 0.13 0.07 0.03 0.00 0.01 0.05 0.12 0.16 0.18 0.13 0.13 0.21 0.31 0.40 0.45 0.44 0.38 0.45
0.01 0.00 0.00 0.00 0.00 0.00 0.00 0.01 0.01 0.01 0.03 0.05 0.06 0.08 0.09 0.08 0.06 0.03 0.05 0.12 0.14 0.09 0.07 0.04 0.05 0.07 0.04 0.03 0.12 0.23 0.25 0.33 0.41 0.47 0.57 0.67 0.55 0.46
0.00 0.00 0.00 0.00 0.00 0.01 0.02 0.03 0.03 0.01 0.03 0.06 0.09 0.12 0.14 0.11 0.08 0.07 0.07 0.10 0.10 0.08 0.07 0.08 0.15 0.32 0.32 0.14 0.05 0.22 0.47 0.52 0.48 0.50 0.58 0.75 0.90 0.74
0.00 0.00 0.00 0.01 0.01 0.03 0.03 0.04 0.04 0.03 0.04 0.06 0.09 0.12 0.17 0.17 0.13 0.11 0.11 0.15 0.17 0.12 0.07 0.05 0.12 0.37 0.65 0.54 0.33 0.25 0.33 0.55 0.73 0.80 0.66 0.53 0.58 0.56
0.00 0.00 0.00 0.01 0.03 0.04 0.05 0.06 0.06 0.07 0.07 0.10 0.12 0.14 0.19 0.22 0.16 0.11 0.13 0.12 0.14 0.15 0.13 0.09 0.11 0.19 0.32 0.36 0.29 0.20 0.24 0.33 0.59 0.94 0.89 0.65 0.45 0.38
0.00 0.00 0.01 0.01 0.04 0.06 0.07 0.07 0.07 0.06 0.08 0.11 0.12 0.15 0.17 0.22 0.22 0.17 0.16 0.17 0.16 0.17 0.17 0.08 0.05 0.09 0.17 0.31 0.28 0.17 0.15 0.13 0.14 0.22 0.53 0.95 1.32 1.43
0.01 0.01 0.02 0.03 0.06 0.07 0.07 0.06 0.06 0.07 0.10 0.15 0.16 0.16 0.18 0.19 0.17 0.18 0.19 0.21 0.22 0.18 0.13 0.08 0.04 0.05 0.09 0.15 0.20 0.16 0.11 0.08 0.07 0.11 0.30 0.50 0.79 1.05